Other Surface Observations
Issued by NWS Upton, NY

Home | Current Version | Previous Version | Text Only | Print | Product List | Glossary On
Versions: 1 2 3 4 5 6 7 8 9 10 11 12 13 14 15 16 17 18 19 20 21 22 23 24 25 26 27 28 29 30 31 32 33 34 35 36 37 38 39 40 41 42 43 44 45 46 47 48 49 50
000
SXUS51 KOKX 250957
OSOOKX
NEW YORK CITY METROPOLITAN AREA WEATHER ROUNDUP
National Weather Service New York NY
500 AM EST SAT FEB 25 2017

CITY           SKY/WX    TMP DP  RH WIND       PRES   REMARKS
Central Park   CLEAR     53  51  93 SE5       29.81F
LaGuardia APRT FOG       53  51  93 S3        29.80S VSB 3/4
Kennedy INTL   FOG       50  50 100 SE8       29.81F VSB 1/4
Newark Liberty PTCLDY    51  49  92 E3        29.79F
Teterboro APRT CLEAR     54  52  93 SW3       29.78F
Wall St Helipt NOT AVBL

>>>>>>>>>>>>>>>>>>>>>>>>>>>>>>>>> KEY <<<<<<<<<<<<<<<<<<<<<<<<<<<<<<<
> SKY/WX - SKY CONDITION/PRESENT    : R : WCI - WIND CHILL INDEX    <
>          WEATHER                  : E : VSB - VISIBILITY IN MILES <
> TMP    - TEMPERATURE IN DEG F     : M : HX  - HEAT INDEX          <
> DP     - DEW POINT TEMPERATURE    : A : TC  - TEMPERATURE IN      <
> RH     - RELATIVE HUMIDITY        : R :       CELSIUS             <
> WIND   - DIRECTION/SPEED (MPH)    : K : VRB - VARIABLE WIND  DIR  <
> PRES   - PRESSURE (IN HG)         : S :                           <
>>>>>>>>>>>>>>>>>>>>>>>>>>>>>>>>> KEY <<<<<<<<<<<<<<<<<<<<<<<<<<<<<<<




USA.gov is the U.S. government's official web portal to all federal, state and local government web resources and services.